阿斯特拉 1A星 (ASTRA 1A)

导读 | 豆包AI

ASTRA 1A卫星由SES发射,于1988年12月11日8时升空。它是SES Astra系列首颗通信卫星,主要面向欧洲区域提供电视广播与通信传输服务,开启了SES依托多卫星打造欧洲直播卫星服务网络的序幕,为欧洲家庭直接接收卫星电视信号奠定了基础,在欧洲卫星广播发展历程中具有开创性意义。

基本信息
目录编号:
19688
目录名称:
ASTRA 1A
国际标识:
1988-109B
轨道中心:
EARTH
卫星名称:
阿斯特拉 1A星
卫星全名:
阿斯特拉 1A星 (ASTRA 1A)
卫星状态:
在轨 (已飞行13654 天)
发射日期:
1988-12-11 UTC
国别 :
(SES)
星等 :
--
轨道信息
数据来源 国际轨道数据 AOE轨道数据
星历时间 2026-04-30T12:22:39+0800
18小时前
查看轨道信息
2026-04-30T11:00:00+0800
20小时前
查看轨道信息
半长轴 42715.62km 42715.852km
偏心率 0.0013208 0.0013273
轨道倾角 14.765° 14.765°
近地点辐角 115.956° 116.313°
升交点赤经 6.358° 6.358°
平近点角 80.528° 59.849°
近地点 36281.064km 36281.018km
远地点 36393.902km 36394.412km
周期 1464.333分钟 1464.345分钟
每日圈数 0.983383 0.983375
详细信息
卫星平台:
GE-4000
平衡模式:
三轴稳定
覆盖范围:
全球
运营商:
欧洲卫星公司
运营商所在国:
卢森堡
制造商(研发单位):
通用电力
制造商所在国:
美国
使用方式:
暂无
卫星简介
阿斯特拉卫星是由SES阿斯特拉运营的商业通信卫星,主要提供电视直播到户业务。Astra卫星包括三个系列共19颗卫星,分别定点在三个不同轨位:Astra-1系列包括十三颗卫星,定点东经19.2度;Astra-2系列包括4颗卫星,定点东经28.2度;Astra-3系列包括2颗卫星,定点东经23.5度。该卫星已退役。
2D轨道图
3D轨道图
轨道高度分析图
轨道倾角分析图
轨道综合分析图
查看轨道综合分析图